Retour au catalogue

SL-8 R/B

ActifPO
NORAD 23180·ROCKET BODY·🇷🇺 Russia

Lancé Jul 14, 1994 depuis Plesetsk Cosmodrome

Loading…

Prochains Passages (prochaines 24 heures)

TLE

FraisSource: Space-Track

Époque: Sep 14, 2026, 21:29 UTC

1 23180U 94041B   26257.89514484  .00000018  00000-0  24201-5 0  9990
2 23180  82.9448 297.9065 0030091 114.1855  63.9742 13.78308698617566

Suivez SL-8 R/B en temps réel avec AllMySat

Download on the App Store